Hourly Data Report for April 08, 2012

MIRAMICHI RCS
NEW BRUNSWICK

47°00'34.000" N
65°27'54.000" W
33.00 m
8100989
71744
ACQ

Download Data

Hourly Data (April 2012)
Hourly Data Report for April 8, 2012
TIME
LST
Temp Definition
°C
Dew Point Definition
°C
Rel Hum Definition
%
Precip. Amount Definition
mm

Wind Dir Definition
10's deg

Wind Spd Definition
km/h
Visibility Definition
km
Stn Press Definition
kPa
Hmdx Definition


Wind Chill Definition


Weather Definition


00:00 -0.1 -7.1 59   33 6   100.85   -2 LegendNANA
01:00 -0.5 -4.0 77   1 9   100.78   -4 LegendNANA
02:00 -1.4 -2.6 92   35 7   100.63   -4 LegendNANA
03:00 -1.5 -2.3 94   33 9   100.37   -5 LegendNANA
04:00 -1.2 -2.4 92   33 13   100.16   -5 LegendNANA
05:00 -0.8 -1.7 94   31 13   99.94   -5 LegendNANA
06:00 -0.4 -1.1 95   33 9   99.78   -4 LegendNANA
07:00 -0.1 -0.7 96   33 15   99.52   -5 LegendNANA
08:00 0.1 -0.4 96   33 13   99.36     LegendNANA
09:00 0.3 -0.2 96   32 15   99.21     LegendNANA
10:00 0.6 0.0 96   32 15   99.07     LegendNANA
11:00 0.8 0.0 94   32 15   98.91     LegendNANA
12:00 0.6 -0.2 94   31 13   98.77     LegendNANA
13:00 1.2 0.1 92   29 15   98.69     LegendNANA
14:00 1.6 0.6 93   28 17   98.65     LegendNANA
15:00 1.6 0.5 92   27 17   98.65     LegendNANA
16:00 1.4 0.4 93   27 15   98.73     LegendNANA
17:00 0.9 -0.3 92   25 9   98.82     LegendNANA
18:00 0.4 -0.3 95   17 7   98.90     LegendNANA
19:00 1.1 0.3 94   18 19   98.98     LegendNANA
20:00 0.7 -0.1 94   17 17   99.13     LegendNANA
21:00 0.6 -0.2 94   16 17   99.23     LegendNANA
22:00 0.8 -0.1 94   15 17   99.27     LegendNANA
23:00 0.9 -0.2 92   16 17   99.30     LegendNANA

Notes on Data Quality.

Legend

  • E = Estimated
  • M = Missing
  • NA = Not Available*
  • [empty] = Indicates an unobserved value
Date modified: